Home   Weather   Salta   Past weeks

Flag for Argentina Past Weather in Salta, Salta, Argentina — Yesterday and Last 2 Weeks

57 °F

Mostly cloudy.

Feels Like: 56 °F
Forecast: N/A
Wind: 6 mph from Northeast

Location: Salta Aerodrome

Current Time: Oct 21, 2016 at 8:57:47 PM

Latest Report: Oct 21, 2016 at 8:00 PM

Visibility: 5 mi

Pressure: 30.09 "Hg (26.14 "Hg at 1184m altitude)

Humidity: 82%

Dew Point: 52 °F

Location of SaltaLocation

Past Weather in Salta — Graph


Salta Temperature Yesterday

Maximum temperature yesterday: 61 °F (at 3:00 PM)
Minimum temperature yesterday: 54 °F (at 7:00 AM)
Average temperature yesterday: 57 °F

High & Low Weather Summary for the Past Weeks

High97 °F (Oct 16, 4:00 PM)100% (Oct 20, 9:00 PM)30.24 "Hg (Oct 20, 9:00 PM)
Low45 °F (Oct 7, 6:00 AM)9% (Oct 15, 6:00 PM)29.62 "Hg (Oct 15, 4:00 PM)
Average66 °F66%29.94 "Hg
* Reported Oct 6 7:00 PM — Oct 21 7:00 PM, Salta, Weather by CustomWeather, © 2016

Note: Actual official high and low records may vary slightly from our data, if they occured in-between our weather recording intervals... More about our weather records


Salta Weather History for the Previous 24 Hours

Scroll right to see more
Time TempWeatherWind HumidityBarometerVisibility
7:00 PM
Fri, Oct 21
57 °FOvercast.6 mph82%30.07 "Hg5 mi
6:00 PM59 °FBroken clouds.10 mph72%30.04 "HgN/A
5:00 PM59 °FBroken clouds.12 mph72%30.07 "HgN/A
4:00 PM59 °FBroken clouds.8 mph72%30.07 "HgN/A
3:00 PM59 °FBroken clouds.6 mph72%30.09 "HgN/A
2:00 PM59 °FBroken clouds.9 mph72%30.09 "HgN/A
1:00 PM57 °FBroken clouds.2 mph72%30.12 "HgN/A
12:00 PM55 °FScattered showers. Mostly cloudy.5 mph82%30.18 "HgN/A
11:00 AM55 °FMostly cloudy.6 mph77%30.21 "HgN/A
10:00 AM52 °FDrizzle. Cloudy.5 mph94%30.24 "Hg4 mi
9:00 AM52 °FScattered showers. Partly sunny.6 mph88%30.24 "Hg5 mi
8:00 AM52 °FScattered showers. Low clouds.5 mph88%30.21 "Hg5 mi
7:00 AM52 °FScattered showers. Low clouds.5 mph88%30.21 "Hg5 mi
6:00 AM52 °FMostly cloudy.6 mph88%30.21 "Hg6 mi
5:00 AM50 °FMostly cloudy.6 mph94%30.18 "Hg4 mi
4:00 AM52 °FMostly cloudy.6 mph94%30.18 "Hg6 mi
3:00 AM52 °FMostly cloudy.8 mph94%30.21 "HgN/A
2:00 AM52 °FMostly cloudy.7 mph94%30.21 "HgN/A
1:00 AM52 °FDrizzle. Mostly cloudy.7 mph94%30.21 "Hg5 mi
12:00 AM54 °FDrizzle. Mostly cloudy.2 mph94%30.21 "Hg5 mi
11:00 PM
Thu, Oct 20
54 °FLow clouds.2 mph94%30.18 "Hg5 mi
10:00 PM54 °FDrizzle. Low clouds.3 mph94%30.15 "Hg5 mi
9:00 PM54 °FDrizzle. Low clouds.2 mph100%30.12 "Hg4 mi
8:00 PM54 °FDrizzle. Low clouds.5 mph94%30.12 "Hg3 mi
Weather by CustomWeather, © 2016

See weather overviewHow to use our weather pages